When you browse on this site, cookies collect data to enhance your experience and personalize the content and advertising you see.
Visit our Privacy Policy to learn more. By continuing to use the site, you agree to this use of cookies and data.
  • en Belgique
  • Liste des pays
  • À 7 jours
  • Température de l'eau
  • Carte météo
  • Widgets météo
  • user-avatar
    Se connecter

    Météo par heure à Cairns

    Ce jour, 1 Juin, Lundi

    Heure Température Précipitation Vent Pression Humidité
    00:00 +21°C° 0.1 mm 2 m/s 762 mmHg 98%
    01:00 +21°C° 0.1 mm 2 m/s 762 mmHg 98%
    02:00 +21°C° 0 mm 2 m/s 762 mmHg 98%
    03:00 +21°C° 0 mm 2 m/s 761 mmHg 98%
    04:00 +21°C° 0 mm 2 m/s 761 mmHg 97%
    05:00 +20°C° 0 mm 2 m/s 761 mmHg 97%
    06:00 +20°C° 0 mm 2 m/s 762 mmHg 97%
    07:00 +20°C° 0 mm 2 m/s 762 mmHg 97%
    08:00 +23°C° 0 mm 2 m/s 762 mmHg 88%
    09:00 +25°C° 0 mm 2 m/s 762 mmHg 79%
    10:00 +27°C° 0 mm 3 m/s 762 mmHg 70%
    11:00 +28°C° 0.1 mm 3 m/s 762 mmHg 69%
    12:00 +28°C° 0.1 mm 3 m/s 762 mmHg 68%
    13:00 +28°C° 0.1 mm 3 m/s 761 mmHg 67%
    14:00 +28°C° 0.2 mm 3 m/s 761 mmHg 73%
    15:00 +27°C° 0.2 mm 3 m/s 760 mmHg 78%
    16:00 +26°C° 0 mm 3 m/s 760 mmHg 81%
    17:00 +25°C° 0 mm 3 m/s 761 mmHg 86%
    18:00 +24°C° 0 mm 3 m/s 761 mmHg 90%
    19:00 +21°C° 0 mm 3 m/s 762 mmHg 94%
    20:00 +21°C° 0 mm 3 m/s 762 mmHg 95%
    21:00 +20°C° 0 mm 2 m/s 762 mmHg 96%
    22:00 +20°C° 0 mm 2 m/s 762 mmHg 97%
    23:00 +20°C° 0 mm 2 m/s 762 mmHg 96%

    Demain, 2 Juin, Mardi

    Heure Température Précipitation Vent Pression Humidité
    00:00 +20°C° 0 mm 2 m/s 762 mmHg 96%
    01:00 +19°C° 0 mm 2 m/s 762 mmHg 96%
    02:00 +19°C° 0 mm 2 m/s 762 mmHg 96%
    03:00 +19°C° 0 mm 2 m/s 761 mmHg 96%
    04:00 +19°C° 0 mm 2 m/s 761 mmHg 97%
    05:00 +19°C° 0 mm 2 m/s 762 mmHg 96%
    06:00 +19°C° 0 mm 2 m/s 762 mmHg 96%
    07:00 +19°C° 0 mm 2 m/s 762 mmHg 95%
    08:00 +21°C° 0 mm 2 m/s 762 mmHg 84%
    09:00 +25°C° 0 mm 3 m/s 762 mmHg 73%
    10:00 +27°C° 0 mm 3 m/s 763 mmHg 62%
    11:00 +28°C° 0 mm 4 m/s 762 mmHg 58%
    12:00 +29°C° 0 mm 4 m/s 762 mmHg 53%
    13:00 +29°C° 0 mm 4 m/s 761 mmHg 48%
    14:00 +29°C° 0 mm 5 m/s 761 mmHg 50%
    15:00 +28°C° 0 mm 5 m/s 761 mmHg 51%
    16:00 +28°C° 0 mm 5 m/s 761 mmHg 53%
    17:00 +26°C° 0 mm 5 m/s 761 mmHg 63%
    18:00 +22°C° 0 mm 5 m/s 762 mmHg 73%
    19:00 +20°C° 0 mm 4 m/s 762 mmHg 84%
    20:00 +20°C° 0 mm 4 m/s 763 mmHg 87%
    21:00 +19°C° 0 mm 4 m/s 763 mmHg 90%
    22:00 +19°C° 0 mm 4 m/s 763 mmHg 93%
    23:00 +18°C° 0 mm 4 m/s 763 mmHg 93%

    Après-demain, 3 Juin, Mercredi

    Heure Température Précipitation Vent Pression Humidité
    00:00 +18°C° 0 mm 4 m/s 763 mmHg 94%
    01:00 +18°C° 0 mm 4 m/s 762 mmHg 94%
    02:00 +18°C° 0 mm 4 m/s 762 mmHg 95%
    03:00 +18°C° 0 mm 4 m/s 762 mmHg 95%
    04:00 +18°C° 0 mm 4 m/s 762 mmHg 96%
    05:00 +18°C° 0.1 mm 4 m/s 762 mmHg 96%
    06:00 +19°C° 0.1 mm 5 m/s 763 mmHg 97%
    07:00 +19°C° 0.1 mm 5 m/s 763 mmHg 97%
    08:00 +21°C° 0.2 mm 6 m/s 763 mmHg 91%
    09:00 +22°C° 0.2 mm 6 m/s 763 mmHg 84%
    10:00 +24°C° 0.2 mm 7 m/s 764 mmHg 78%
    11:00 +26°C° 0.1 mm 7 m/s 763 mmHg 73%
    12:00 +26°C° 0.1 mm 7 m/s 763 mmHg 69%
    13:00 +27°C° 0.1 mm 7 m/s 762 mmHg 64%
    14:00 +26°C° 0 mm 7 m/s 762 mmHg 66%
    15:00 +26°C° 0 mm 7 m/s 762 mmHg 68%
    16:00 +24°C° 0 mm 7 m/s 761 mmHg 70%
    17:00 +22°C° 0 mm 6 m/s 762 mmHg 78%
    18:00 +21°C° 0 mm 6 m/s 762 mmHg 85%
    19:00 +19°C° 0 mm 6 m/s 763 mmHg 92%
    20:00 +17°C° 0 mm 5 m/s 763 mmHg 93%
    21:00 +17°C° 0 mm 5 m/s 763 mmHg 93%
    22:00 +16°C° 0 mm 5 m/s 764 mmHg 94%
    23:00 +16°C° 0 mm 5 m/s 763 mmHg 94%

    4 Juin, Jeudi

    Heure Température Précipitation Vent Pression Humidité
    00:00 +16°C° 0 mm 5 m/s 763 mmHg 94%
    01:00 +16°C° 0 mm 5 m/s 763 mmHg 94%
    02:00 +16°C° 0 mm 5 m/s 762 mmHg 93%
    03:00 +16°C° 0 mm 5 m/s 762 mmHg 93%
    04:00 +15°C° 0 mm 5 m/s 762 mmHg 93%
    05:00 +15°C° 0 mm 5 m/s 762 mmHg 93%
    06:00 +15°C° 0 mm 5 m/s 763 mmHg 93%
    07:00 +15°C° 0 mm 6 m/s 763 mmHg 92%
    08:00 +17°C° 0 mm 6 m/s 763 mmHg 83%
    09:00 +21°C° 0 mm 6 m/s 763 mmHg 73%
    10:00 +23°C° 0 mm 6 m/s 764 mmHg 64%
    11:00 +24°C° 0 mm 7 m/s 763 mmHg 62%
    12:00 +24°C° 0 mm 7 m/s 763 mmHg 60%
    13:00 +26°C° 0 mm 7 m/s 762 mmHg 57%
    14:00 +24°C° 0 mm 7 m/s 762 mmHg 60%
    15:00 +24°C° 0 mm 7 m/s 762 mmHg 63%
    16:00 +24°C° 0 mm 7 m/s 761 mmHg 66%
    17:00 +22°C° 0 mm 6 m/s 762 mmHg 73%
    18:00 +20°C° 0 mm 6 m/s 762 mmHg 80%
    19:00 +19°C° 0 mm 5 m/s 763 mmHg 88%
    20:00 +19°C° 0 mm 5 m/s 763 mmHg 89%
    21:00 +19°C° 0 mm 6 m/s 763 mmHg 89%
    22:00 +19°C° 0 mm 6 m/s 764 mmHg 90%
    23:00 +19°C° 0 mm 5 m/s 763 mmHg 91%

    5 Juin, Vendredi

    Heure Température Précipitation Vent Pression Humidité
    00:00 +19°C° 0 mm 5 m/s 763 mmHg 93%
    01:00 +19°C° 0 mm 5 m/s 762 mmHg 94%
    02:00 +19°C° 0 mm 5 m/s 762 mmHg 94%
    03:00 +19°C° 0 mm 5 m/s 761 mmHg 94%
    04:00 +19°C° 0 mm 5 m/s 761 mmHg 94%
    05:00 +20°C° 0.1 mm 5 m/s 761 mmHg 94%
    06:00 +20°C° 0.1 mm 5 m/s 762 mmHg 94%
    07:00 +20°C° 0.1 mm 5 m/s 762 mmHg 94%
    08:00 +22°C° 0.1 mm 5 m/s 762 mmHg 90%
    09:00 +23°C° 0.1 mm 6 m/s 762 mmHg 85%
    10:00 +24°C° 0.1 mm 6 m/s 762 mmHg 80%
    11:00 +24°C° 0.1 mm 6 m/s 762 mmHg 80%
    12:00 +26°C° 0.1 mm 6 m/s 761 mmHg 79%
    13:00 +26°C° 0.1 mm 6 m/s 761 mmHg 79%
    14:00 +26°C° 0.2 mm 6 m/s 761 mmHg 80%
    15:00 +26°C° 0.2 mm 6 m/s 761 mmHg 81%
    16:00 +24°C° 0.2 mm 6 m/s 760 mmHg 82%
    17:00 +23°C° 0.1 mm 6 m/s 761 mmHg 86%
    18:00 +22°C° 0.1 mm 6 m/s 761 mmHg 90%
    19:00 +22°C° 0.1 mm 5 m/s 761 mmHg 94%
    20:00 +22°C° 0.1 mm 5 m/s 762 mmHg 94%
    21:00 +22°C° 0.1 mm 5 m/s 762 mmHg 95%
    22:00 +22°C° 0.1 mm 5 m/s 762 mmHg 95%
    23:00 +22°C° 0.1 mm 5 m/s 762 mmHg 95%

    6 Juin, Samedi

    Heure Température Précipitation Vent Pression Humidité
    00:00 +22°C° 0.1 mm 5 m/s 761 mmHg 96%
    01:00 +21°C° 0.1 mm 5 m/s 761 mmHg 96%
    02:00 +22°C° 0.2 mm 5 m/s 761 mmHg 96%
    03:00 +22°C° 0.2 mm 5 m/s 760 mmHg 96%
    04:00 +22°C° 0.2 mm 5 m/s 760 mmHg 97%
    05:00 +22°C° 0.3 mm 5 m/s 760 mmHg 97%
    06:00 +22°C° 0.3 mm 5 m/s 760 mmHg 97%
    07:00 +22°C° 0.3 mm 5 m/s 761 mmHg 97%
    08:00 +23°C° 0.1 mm 5 m/s 761 mmHg 92%
    09:00 +24°C° 0.1 mm 6 m/s 761 mmHg 86%
    10:00 +26°C° 0.1 mm 6 m/s 761 mmHg 81%
    11:00 +27°C° 0.1 mm 6 m/s 761 mmHg 77%
    12:00 +28°C° 0.1 mm 6 m/s 760 mmHg 73%
    13:00 +28°C° 0.1 mm 6 m/s 760 mmHg 69%
    14:00 +28°C° 0.1 mm 6 m/s 759 mmHg 72%
    15:00 +27°C° 0.1 mm 6 m/s 759 mmHg 76%
    16:00 +26°C° 0.1 mm 6 m/s 759 mmHg 80%
    17:00 +24°C° 0.2 mm 6 m/s 760 mmHg 85%
    18:00 +23°C° 0.2 mm 6 m/s 760 mmHg 91%
    19:00 +22°C° 0.2 mm 6 m/s 761 mmHg 96%
    20:00 +22°C° 0.1 mm 5 m/s 761 mmHg 95%
    21:00 +22°C° 0.1 mm 5 m/s 761 mmHg 95%
    22:00 +22°C° 0.1 mm 5 m/s 761 mmHg 94%
    23:00 +21°C° 0 mm 5 m/s 761 mmHg 95%
    Voir plus